Glasgow, MT

3:59 AM MDT on September 25, 2017 (GMT -0600)
Wokal-Glasgow International

Weather History for KGGW - February, 2014

Change the Weather History Date:

Thursday, February 20, 2014

  Actual Average Record
Temperature  
Mean Temperature 23 °F 21 °F  
Max Temperature 35 °F 31 °F 62 °F (1995)
Min Temperature 11 °F 11 °F -45 °F (1918)
Degree Days  
Heating Degree Days 42 44  
Month to date heating degree days 1062 942  
Since 1 July heating degree days 6194 6031  
Cooling Degree Days 0 0  
Month to date cooling degree days 0 0  
Year to date cooling degree days 0 0  
Moisture  
Dew Point 16 °F    
Average Humidity 70    
Maximum Humidity 92    
Minimum Humidity 47    
Precipitation  
Precipitation 0.01 in 0.01 in 0.50 in (1899)
Month to date precipitation 0.14 0.17  
Year to date precipitation 0.27 0.54  
Snow  
Snow 0.40 in 0.20 in 6.60 in (2011)
Month to date snowfall 2.7 3.1  
Since 1 July snowfall 22.6 25.7  
Snow Depth T in    
Sea Level Pressure  
Sea Level Pressure 29.84 in    
Wind  
Wind Speed 10 mph (WNW)    
Max Wind Speed 35 mph    
Max Gust Speed 42 mph    
Visibility 8 miles    
Events Snow    
T = Trace of Precipitation, MM = Missing Value Source: NWS Daily Summary

Daily Weather History Graph

Daily Weather History Graph

Search for Another Location

Airport or City:

Trip Planner

Search our weather history database for the weather conditions in past years. The results will help you decide how hot, cold, wet, or windy it might be!

Date:

Astronomy

Feb. 20, 2014 Rise Set
Actual Time 7:04 AM MST 5:36 PM MST
Civil Twilight 6:32 AM MST 6:08 PM MST
Nautical Twilight 5:56 AM MST 6:44 PM MST
Astronomical Twilight 5:20 AM MST 7:20 PM MST
Moon No Moon Rise 9:21 AM MST (2/20)
Length of Visible Light 11h 35m
Length of Day
10h 32m
Waning Gibbous, 70% of the Moon is Illuminated
Feb 20
Waning Gibbous
Feb 22
Last Quarter
Mar 1
New
Mar 8
First Quarter
Mar 16
Full

Hourly Weather History & Observations

Time (MST) Temp. Windchill Dew Point Humidity Pressure Visibility Wind Dir Wind Speed Gust Speed Precip Events Conditions
12:53 AM 15.1 °F -4.4 °F 10.0 °F 80% 29.78 in 3.0 mi NNW 26.5 mph 34.5 mph 0.00 in Snow Light Snow
1:16 AM 14.0 °F -4.3 °F 10.0 °F 84% 29.71 in 1.8 mi NW 21.9 mph - 0.00 in Snow Light Snow
1:26 AM 14.0 °F -6.5 °F 9.0 °F 80% 29.71 in 1.5 mi NW 28.8 mph 35.7 mph 0.00 in Snow Light Snow
1:31 AM 14.0 °F -6.2 °F 9.0 °F 80% 29.72 in 2.0 mi NW 27.6 mph 38.0 mph 0.00 in Snow Light Snow
1:45 AM 14.0 °F -3.9 °F 7.0 °F 74% 29.73 in 6.0 mi NNW 20.7 mph 31.1 mph 0.00 in Snow Light Snow
1:53 AM 14.0 °F -3.4 °F 8.1 °F 77% 29.83 in 9.0 mi NNW 19.6 mph 26.5 mph 0.00 in   Overcast
2:53 AM 14.0 °F -2.5 °F 7.0 °F 74% 29.88 in 10.0 mi NNW 17.3 mph - N/A   Mostly Cloudy
3:11 AM 14.0 °F -2.0 °F 8.1 °F 77% 29.80 in 10.0 mi NW 16.1 mph 27.6 mph N/A   Mostly Cloudy
3:53 AM 15.1 °F -1.6 °F 9.0 °F 77% 29.92 in 10.0 mi WNW 18.4 mph - N/A   Overcast
4:53 AM 16.0 °F 0.1 °F 10.9 °F 81% 29.94 in 10.0 mi NW 17.3 mph - N/A   Overcast
5:37 AM 14.0 °F -0.8 °F 10.0 °F 84% 29.86 in 10.0 mi NW 13.8 mph - N/A   Scattered Clouds
5:53 AM 14.0 °F -0.2 °F 10.0 °F 84% 29.97 in 10.0 mi NW 12.7 mph - N/A   Scattered Clouds
6:53 AM 12.9 °F 0.7 °F 9.0 °F 84% 29.99 in 10.0 mi NW 9.2 mph - N/A   Clear
7:53 AM 10.9 °F 1.4 °F 8.1 °F 88% 30.01 in 10.0 mi West 5.8 mph - N/A   Clear
8:53 AM 18.0 °F 11.1 °F 9.0 °F 68% 30.00 in 10.0 mi NW 4.6 mph - N/A   Clear
9:53 AM 19.9 °F 12.1 °F 10.9 °F 68% 30.00 in 10.0 mi WSW 5.8 mph - N/A   Clear
10:53 AM 23.0 °F 17.0 °F 12.9 °F 65% 29.98 in 10.0 mi SSW 4.6 mph - N/A   Clear
11:53 AM 28.0 °F 22.8 °F 16.0 °F 61% 29.96 in 10.0 mi WSW 4.6 mph - N/A   Clear
12:53 PM 30.9 °F 25.2 °F 19.9 °F 64% 29.93 in 10.0 mi SW 5.8 mph - N/A   Partly Cloudy
1:53 PM 34.0 °F 28.0 °F 21.9 °F 61% 29.89 in 10.0 mi West 6.9 mph - N/A   Clear
2:53 PM 35.1 °F 28.6 °F 21.0 °F 57% 29.86 in 10.0 mi WSW 8.1 mph - N/A   Clear
3:53 PM 35.1 °F 31.0 °F 18.0 °F 50% 29.84 in 10.0 mi SW 4.6 mph - N/A   Clear
4:53 PM 30.9 °F 22.8 °F 23.0 °F 72% 29.82 in 10.0 mi SE 9.2 mph - N/A   Partly Cloudy
5:53 PM 28.9 °F 22.8 °F 23.0 °F 78% 29.81 in 10.0 mi ESE 5.8 mph - N/A   Mostly Cloudy
6:53 PM 28.9 °F 21.1 °F 23.0 °F 78% 29.81 in 10.0 mi ESE 8.1 mph - N/A   Overcast
7:53 PM 28.9 °F 21.1 °F 23.0 °F 78% 29.79 in 10.0 mi East 8.1 mph - N/A   Overcast
8:53 PM 28.9 °F 20.4 °F 24.1 °F 82% 29.78 in 10.0 mi East 9.2 mph - N/A   Overcast
9:53 PM 28.9 °F 21.1 °F 23.0 °F 78% 29.76 in 10.0 mi East 8.1 mph - N/A   Overcast
10:53 PM 28.9 °F 25.2 °F 24.1 °F 82% 29.77 in 6.0 mi South 3.5 mph - 0.00 in Snow Light Snow
11:06 PM 28.0 °F - 24.1 °F 85% 29.67 in 2.5 mi Calm Calm - 0.00 in Snow Light Snow
11:13 PM 28.0 °F - 24.1 °F 85% 29.67 in 4.0 mi Calm Calm - 0.00 in Snow Light Snow
11:23 PM 28.0 °F - 24.1 °F 85% 29.67 in 9.0 mi Calm Calm - 0.00 in   Overcast
11:53 PM 27.0 °F 21.6 °F 25.0 °F 92% 29.75 in 10.0 mi ESE 4.6 mph - 0.00 in   Overcast